Regional Weather Roundup
Issued by NWS

Home | Current Version | Previous Version | Text Only | Print | Product List | Glossary On
Versions: 1 2 3 4 5 6 7 8 9 10 11 12 13 14 15 16 17 18 19 20 21 22 23 24 25 26 27 28 29 30 31 32 33 34 35 36 37 38 39 40 41 42 43 44 45 46 47 48 49 50
000
ASUS43 KIND 270709
RWRIN

WEATHER ROUNDUP FOR INDIANA
NATIONAL WEATHER SERVICE INDIANAPOLIS IN
200 AM EST MON FEB 27 2017

NOTE: "FAIR" INDICATES FEW OR NO CLOUDS BELOW 12,000 FEET WITH NO
SIGNIFICANT WEATHER AND/OR OBSTRUCTIONS TO VISIBILITY.

* - STATION DOES NOT REPORT WEATHER SUCH AS PRECIPITATION OR FOG.

+ - STATION NOT QUALITY CONTROLLED BY THE NATIONAL WEATHER SERVICE.
    USE DATA WITH CAUTION...ESPECIALLY DEWPOINT AND RELATIVE
    HUMIDITY OBSERVATIONS.

INZ001>003-010>013-019-020-270800-
NORTHWEST INDIANA

CITY           SKY/WX    TMP DP  RH WIND       PRES   REMARKS
GARY /AIRPORT/ PTCLDY    37  23  56 SW6       30.11R
KNOX *+        PTCLDY    32   5  32 SW5       30.12S WCI  27
LA PORTE +     PTCLDY    32  24  71 SW7       30.11S WCI  26
MICHIGAN CITY+ MOCLDY    34  25  69 SW7       30.11R WCI  28
MONTICELLO +   PTCLDY    34  21  60 S5        30.14R WCI  30
RENSSELAER +     N/A     32  23  69 SW6       30.13S WCI  26
VALPARAISO     PTCLDY    34  24  67 SW8       30.11R WCI  27

$$

LMZ046-743>745-270800-
SOUTHERN LAKE MICHIGAN

STATION/POSITION TIME  TEMP    WIND        PRES    WAVE
                       AIR SEA DIR/SP/G            HT
                 (UTC) (F)     (DEG/KT/KT) (MB)    (FT)
BURNS HARBOR     0640   39     210/ 13/ 20 1019.6R
MICHIGAN CITY    0640   38     190/ 17/ 18   N/A

$$

INZ004-005-014>016-021>024-270800-
NORTH CENTRAL INDIANA

CITY           SKY/WX    TMP DP  RH WIND       PRES   REMARKS
GOSHEN         CLEAR     33  22  63 SW9       30.12R WCI  25
LOGANSPORT +   MOCLDY    30  25  80 SW7       30.15R WCI  23
PERU/GRISSOM   PTCLDY    31  24  73 SW7       30.13R WCI  25
ROCHESTER +    CLEAR     36  27  69 SW5       30.13S
SOUTH BEND     CLEAR     33  22  63 SW7       30.11R WCI  27

$$

INZ006>009-017-018-025>027-270800-
NORTHEAST INDIANA

CITY           SKY/WX    TMP DP  RH WIND       PRES   REMARKS
ANGOLA *+      CLEAR     36  25  64 SW8       30.10S
AUBURN +       CLEAR     36  23  60 SW3       30.13R
FORT WAYNE     PTCLDY    32  24  72 S8        30.14R WCI  25
HUNTINGTON +   CLEAR     36  21  55 SW6       30.14R
KENDALLVILLE + PTCLDY    35  23  63 SW8       30.12R WCI  28

$$

INZ028-029-035-036-043>045-051>053-270800-
WEST CENTRAL INDIANA

CITY           SKY/WX    TMP DP  RH WIND       PRES   REMARKS
LAFAYETTE      CLEAR     31  22  69 CALM      30.14S
TERRE HAUTE    CLOUDY    42  32  67 SW6       30.17S

$$

INZ030>032-037>040-046>048-054>057-064-065-270800-
CENTRAL INDIANA

CITY           SKY/WX    TMP DP  RH WIND       PRES   REMARKS
CP ATTERBURY + CLOUDY    37  28  70 CALM      30.18R
FISHERS *+     CLOUDY    41  25  52 SW9       30.16
FRANKFORT +    CLOUDY    37  27  69 SW5       30.16R
GREENWOOD *+   CLOUDY    43  22  43 SW5       30.17R
INDIANAPOLIS   CLOUDY    43  26  51 SW13      30.16R
-EAGLE CREEK   CLOUDY    43  25  49 VRB7      30.15R
KOKOMO +       MOCLDY    34  22  61 S8        30.15R WCI  27
MARION +       PTCLDY    32  23  67 S8        30.15S WCI  25
MT COMFORT *+  CLOUDY    41  21  45 SW6       30.16S
SHELBYVILLE    CLOUDY    43  22  43 S8        30.16S
ZIONSVILLE +   CLOUDY    37  23  55 SW8       30.16R

$$

INZ033-034-041-042-049-050-058-059-270800-
EAST CENTRAL INDIANA

CITY           SKY/WX    TMP DP  RH WIND       PRES   REMARKS
MUNCIE         CLOUDY    40  20  44 S8        30.15R

$$

INZ060-061-067>069-081>083-085>088-270800-
SOUTHWEST INDIANA

CITY           SKY/WX    TMP DP  RH WIND       PRES   REMARKS
EVANSVILLE     CLOUDY    45  29  53 CALM      30.17S
HUNTINGBURG *+ CLOUDY    42  27  55 NE7       30.17F
WASHINGTON +   CLOUDY    43  29  57 CALM      30.16F

$$

INZ062-063-066-070>080-084-089>092-270800-
SOUTH CENTRAL AND SOUTHEAST INDIANA

CITY           SKY/WX    TMP DP  RH WIND       PRES   REMARKS
BEDFORD +      CLOUDY    43  18  36 CALM      30.17R
BLOOMINGTON    CLOUDY    43  31  62 W5        30.17R
MADISON *+     CLOUDY    41  21  45 CALM      30.20R
NORTH VERNON + MOCLDY    41  23  48 CALM      30.18R
SEYMOUR +      CLOUDY    41  32  70 CALM      30.18R

$$





USA.gov is the U.S. government's official web portal to all federal, state and local government web resources and services.